Stations météo

réclame
Mon MeteoGroup
Calvi, France (7754): Température de l'air & dewpoint: 10.08.2018 04:00:00 - 16.08.2018 04:00:00 (CEST)Calvi, France (7754): Température de l'air 5cm: 10.08.2018 04:00:00 - 16.08.2018 04:00:00 (CEST)Calvi, France (7754): Vitesse du vent & gusts: 10.08.2018 04:00:00 - 16.08.2018 04:00:00 (CEST)Calvi, France (7754): Direction du vent: 10.08.2018 04:00:00 - 16.08.2018 04:00:00 (CEST)Calvi, France (7754): reduced air pressure: 10.08.2018 04:00:00 - 16.08.2018 04:00:00 (CEST)Calvi, France (7754): visibility: 10.08.2018 04:00:00 - 16.08.2018 04:00:00 (CEST)Calvi, France (7754): Quantités de précipitations: 10.08.2018 04:00:00 - 16.08.2018 04:00:00 (CEST)
Date & Time tt [°C] td [°C] tt 5cm [°C] ff [km/h] ff [knt] fx [km/h] fx [knt] dd ppp [hPa] vv [km] rr [mm]
16.08.2018 04:00:00 - - - - - - - - - - -
16.08.2018 03:00:00 19,7 15,8 19,0 4 2 11 6 SSW 1015,4 60 0,0
16.08.2018 02:00:00 19,8 16,1 19,3 6 4 10 5 S 1015,5 60 0,0
16.08.2018 01:00:00 20,4 16,2 19,7 6 4 17 9 SSW 1015,4 19 0,0
16.08.2018 00:00:00 21,0 16,6 20,5 8 5 14 7 SSW 1015,3 60 0,0
15.08.2018 23:00:00 22,1 16,6 21,5 7 4 17 9 S 1015,0 60 0,0
15.08.2018 22:00:00 23,6 16,9 22,7 4 2 11 6 S 1014,8 60 0,0
15.08.2018 21:00:00 25,3 17,0 24,6 4 2 25 13 SE 1014,4 17 0,0
15.08.2018 20:00:00 26,8 15,8 26,7 16 9 35 19 NNE 1013,9 60 0,0
15.08.2018 19:00:00 28,2 15,1 30,1 27 15 45 24 N 1013,6 60 0,0
15.08.2018 18:00:00 28,6 16,5 31,1 32 17 47 25 NNE 1013,8 60 0,0
15.08.2018 17:00:00 29,3 16,8 32,7 27 15 48 26 N 1013,8 60 0,0
15.08.2018 16:00:00 28,9 18,1 33,6 31 17 43 23 N 1013,6 60 0,0
15.08.2018 15:00:00 29,2 17,4 32,6 27 15 42 23 N 1014,1 60 0,0
15.08.2018 14:00:00 29,0 18,5 31,4 27 14 41 22 N 1014,0 53 0,0
15.08.2018 13:00:00 28,2 19,4 31,5 23 12 39 21 N 1014,0 60 0,0
15.08.2018 12:00:00 28,3 18,1 31,3 21 11 32 17 N 1013,9 60 0,0
15.08.2018 11:00:00 27,2 18,8 29,5 17 9 28 15 N 1013,9 49 0,0
15.08.2018 10:00:00 25,4 19,3 24,0 4 2 11 6 NW 1013,7 59 0,0
15.08.2018 09:00:00 22,9 20,1 18,6 8 5 14 7 SSE 1013,9 45 2,6
15.08.2018 08:00:00 20,1 17,3 18,6 4 2 17 9 N 1014,3 2,2 1,4
15.08.2018 07:00:00 19,8 15,9 18,8 9 5 15 8 S 1013,3 60 0,0
15.08.2018 06:00:00 19,0 15,3 18,5 8 4 17 9 SSE 1013,0 60 0,0
15.08.2018 05:00:00 19,7 14,9 18,1 10 5 16 9 SSW 1013,2 60 0,0
15.08.2018 04:00:00 18,8 15,1 18,2 4 2 10 6 SSW 1012,9 60 0,0
15.08.2018 03:00:00 18,9 14,8 18,4 3 2 14 7 S 1012,6 60 0,0
15.08.2018 02:00:00 20,5 14,8 19,3 10 6 14 8 S 1012,8 60 0,0
15.08.2018 01:00:00 20,4 15,6 19,9 9 5 15 8 S 1012,7 60 0,0
15.08.2018 00:00:00 22,4 16,2 22,0 10 5 24 13 S 1012,1 60 0,0
14.08.2018 23:00:00 24,1 16,9 23,1 19 10 34 19 S 1011,9 60 0,0
14.08.2018 22:00:00 24,2 17,0 23,8 16 8 35 19 S 1011,6 60 0,0
14.08.2018 21:00:00 24,7 16,7 24,4 16 9 38 20 SSW 1011,6 51 0,0
14.08.2018 20:00:00 25,1 16,3 25,2 11 6 32 18 SSW 1011,2 60 0,0
14.08.2018 19:00:00 27,1 15,8 28,7 17 9 46 25 SW 1010,9 57 0,0
14.08.2018 18:00:00 27,8 16,7 30,4 27 15 49 26 SW 1011,0 60 0,0
14.08.2018 17:00:00 28,9 13,6 32,5 30 16 49 26 SW 1011,2 60 0,0
14.08.2018 16:00:00 29,3 16,1 33,6 26 14 43 23 SW 1011,0 60 0,0
14.08.2018 15:00:00 30,0 17,1 32,9 20 11 43 23 SW 1010,7 20 0,0
14.08.2018 14:00:00 30,2 17,3 31,7 26 14 49 26 SSW 1011,3 20 0,0
14.08.2018 13:00:00 29,2 17,4 25,5 26 14 41 22 SSW 1011,3 57 0,0
14.08.2018 12:00:00 24,1 19,6 21,9 12 7 41 22 SSW 1012,4 58 0,2
14.08.2018 11:00:00 26,9 17,9 26,6 17 9 31 17 SSW 1012,4 59 0,0
14.08.2018 10:00:00 26,1 19,0 25,1 18 10 35 19 SSE 1011,7 55 0,0
14.08.2018 09:00:00 24,6 18,3 23,1 13 7 31 17 S 1011,6 57 0,0
14.08.2018 08:00:00 23,1 16,6 20,5 19 10 33 18 S 1011,7 44 0,0
14.08.2018 07:00:00 21,9 17,5 19,6 24 13 40 21 S 1012,0 46 0,2
14.08.2018 06:00:00 22,3 17,0 19,4 11 6 24 13 S 1011,4 8 4,8
14.08.2018 05:00:00 24,6 16,1 24,2 13 7 23 12 S 1010,7 10 0,0
14.08.2018 04:00:00 25,1 17,8 23,2 14 8 27 15 SSW 1011,4 54 0,0
14.08.2018 03:00:00 23,2 15,0 22,9 12 7 22 12 S 1011,5 55 0,0
14.08.2018 02:00:00 24,3 16,3 23,5 13 7 25 13 S 1012,1 57 0,0
14.08.2018 01:00:00 24,4 15,1 20,2 17 9 22 12 S 1012,3 54 0,0
14.08.2018 00:00:00 21,6 15,9 21,1 2 1 12 6 S 1012,5 60 0,0
13.08.2018 23:00:00 22,4 16,9 21,9 4 2 13 7 S 1012,7 47 0,0
13.08.2018 22:00:00 23,0 17,9 22,3 4 2 12 6 SSW 1012,9 40 0,0
13.08.2018 21:00:00 24,8 18,0 24,5 6 3 8 4 E 1012,3 39 0,0
13.08.2018 20:00:00 26,4 18,3 27,4 4 2 10 5 NNE 1011,8 60 0,0
13.08.2018 19:00:00 27,3 17,5 29,3 5 3 16 9 NNW 1012,0 60 0,0
13.08.2018 18:00:00 27,4 17,6 29,7 13 7 23 13 N 1012,4 60 0,0
13.08.2018 17:00:00 29,0 18,1 34,3 14 7 26 14 NNW 1012,5 60 0,0
13.08.2018 16:00:00 29,5 16,3 33,9 16 9 25 13 NNW 1012,6 60 0,0
13.08.2018 15:00:00 29,5 18,0 32,1 5 3 15 8 ENE 1013,2 18 0,0
13.08.2018 14:00:00 27,5 19,0 31,1 9 5 31 17 N 1014,2 20 0,0
13.08.2018 13:00:00 27,7 19,2 27,8 12 6 55 30 WNW 1015,9 20 0,0
13.08.2018 12:00:00 27,1 20,2 28,9 31 17 56 30 W 1016,0 20 0,0
13.08.2018 11:00:00 30,1 17,5 32,3 11 6 21 12 NNW 1014,2 58 0,0
13.08.2018 10:00:00 28,2 18,9 30,6 13 7 24 13 ENE 1014,0 60 0,0
13.08.2018 09:00:00 29,0 13,6 25,3 2 1 9 5 E 1013,8 20 0,0
13.08.2018 08:00:00 23,4 14,1 19,8 8 4 12 6 S 1013,8 59 0,0
13.08.2018 07:00:00 19,4 13,1 19,0 6 3 14 8 S 1013,8 20 0,0
13.08.2018 06:00:00 20,3 15,3 19,4 10 5 16 9 SSW 1014,0 60 0,0
13.08.2018 05:00:00 19,8 14,8 19,4 9 5 16 8 S 1014,5 54 0,0
13.08.2018 04:00:00 19,6 14,8 19,5 5 3 16 9 S 1014,7 60 0,0
13.08.2018 03:00:00 20,0 15,2 19,5 11 6 15 8 S 1014,8 17 0,0
13.08.2018 02:00:00 20,1 16,1 20,1 5 3 12 7 S 1015,1 60 0,0
13.08.2018 01:00:00 20,9 17,3 20,3 7 4 12 6 SSW 1015,8 50 0,0
13.08.2018 00:00:00 21,9 17,7 21,6 7 4 10 5 SSE 1016,1 50 0,0
12.08.2018 23:00:00 22,6 18,2 22,4 8 4 12 6 S 1016,1 53 0,0
12.08.2018 22:00:00 23,7 18,6 22,9 3 1 11 6 SW 1015,9 53 0,0
12.08.2018 21:00:00 25,8 19,9 25,5 7 4 21 11 E 1015,3 20 0,0
12.08.2018 20:00:00 28,8 15,7 28,9 3 1 13 7 SSW 1014,8 60 0,0
12.08.2018 19:00:00 30,7 13,9 33,9 10 5 22 12 WSW 1014,7 59 0,0
12.08.2018 18:00:00 31,3 14,4 35,0 14 7 28 15 SW 1015,1 50 0,0
12.08.2018 17:00:00 30,9 18,6 36,0 12 6 29 16 WSW 1015,5 60 0,0
12.08.2018 16:00:00 31,9 19,5 37,4 17 9 37 20 SW 1015,9 56 0,0
12.08.2018 15:00:00 32,1 18,3 35,0 11 6 23 13 W 1016,0 19 0,0
12.08.2018 14:00:00 31,9 18,8 35,6 12 6 24 13 NNW 1016,3 60 0,0
12.08.2018 13:00:00 31,5 17,8 36,5 11 6 27 14 NW 1016,6 20 0,0
12.08.2018 12:00:00 31,1 15,9 35,9 11 6 23 12 NNW 1017,0 60 0,0
12.08.2018 11:00:00 29,6 16,1 33,6 10 6 18 10 N 1017,3 47 0,0
12.08.2018 10:00:00 28,8 14,6 30,6 6 3 11 6 N 1017,3 20 0,0
12.08.2018 09:00:00 27,5 14,8 25,5 0 0 8 4 N 1017,3 20 0,0
12.08.2018 08:00:00 23,5 13,7 19,7 6 4 12 7 SSW 1017,3 19 0,0
12.08.2018 07:00:00 19,6 12,6 17,5 11 6 16 9 S 1017,2 20 0,0
12.08.2018 06:00:00 18,6 13,0 17,8 4 2 16 9 SW 1016,9 59 0,0
12.08.2018 05:00:00 20,3 12,8 18,7 8 5 15 8 SSW 1016,7 59 0,0
12.08.2018 04:00:00 20,7 12,7 19,3 4 2 16 9 S 1016,9 59 0,0
12.08.2018 03:00:00 21,1 13,0 20,0 7 4 17 9 SSE 1017,2 60 0,0
12.08.2018 02:00:00 21,9 13,3 21,7 15 8 29 16 S 1017,4 18 0,0
12.08.2018 01:00:00 25,1 17,3 23,0 20 11 32 18 S 1017,9 15 0,0
12.08.2018 00:00:00 25,5 17,2 23,3 18 10 28 15 S 1018,0 59 0,0
11.08.2018 23:00:00 24,3 14,7 23,2 5 3 17 9 SW 1017,9 60 0,0
11.08.2018 22:00:00 26,5 14,3 25,7 13 7 29 16 SSW 1017,8 60 0,0
11.08.2018 21:00:00 26,7 14,1 26,4 16 8 27 14 SSW 1017,2 60 0,0
11.08.2018 20:00:00 27,9 14,2 28,0 16 9 35 19 SSW 1017,1 60 0,0
11.08.2018 19:00:00 29,9 12,8 32,1 16 9 36 19 SW 1017,3 58 0,0
11.08.2018 18:00:00 31,2 10,5 34,3 22 12 40 22 SW 1017,6 60 0,0
11.08.2018 17:00:00 31,8 8,7 35,7 27 15 41 22 SW 1017,9 60 0,0
11.08.2018 16:00:00 32,9 7,0 37,5 23 13 40 22 SW 1018,2 60 0,0
11.08.2018 15:00:00 33,0 10,9 36,4 23 13 42 23 SW 1018,6 60 0,0
11.08.2018 14:00:00 33,2 11,7 35,5 22 12 41 22 SW 1018,7 60 0,0
11.08.2018 13:00:00 32,5 12,7 36,1 24 13 41 22 SW 1019,0 60 0,0
11.08.2018 12:00:00 31,6 14,3 35,3 22 12 37 20 SW 1019,3 20 0,0
11.08.2018 11:00:00 31,4 13,6 33,2 19 10 38 20 SW 1019,3 60 0,0
11.08.2018 10:00:00 30,7 13,0 31,3 22 12 37 20 SW 1019,1 60 0,0
11.08.2018 09:00:00 29,7 14,3 28,1 15 8 32 17 SW 1019,0 54 0,0
11.08.2018 08:00:00 27,2 17,9 22,4 18 10 30 16 SSW 1018,9 60 0,0
11.08.2018 07:00:00 22,5 16,1 20,2 4 2 16 9 SSW 1019,0 46 0,0
11.08.2018 06:00:00 22,2 15,8 20,7 4 2 14 7 SSW 1018,8 58 0,0
11.08.2018 05:00:00 24,1 16,1 23,0 8 4 22 12 SE 1018,9 58 0,0
11.08.2018 04:00:00 25,9 15,6 24,7 13 7 26 14 SSW 1019,3 60 0,0
11.08.2018 03:00:00 25,2 16,1 24,7 11 6 24 13 S 1019,6 60 0,0
11.08.2018 02:00:00 25,5 16,4 24,9 16 9 22 12 SSE 1019,9 60 0,0
11.08.2018 01:00:00 25,0 18,0 24,8 10 5 24 13 SSE 1020,2 60 0,0
11.08.2018 00:00:00 25,8 19,9 25,3 18 10 27 15 SSE 1020,1 59 0,0
10.08.2018 23:00:00 26,0 19,9 25,6 9 5 16 9 S 1020,1 59 0,0
10.08.2018 22:00:00 26,2 19,3 25,8 4 2 26 14 S 1020,0 59 0,0
10.08.2018 21:00:00 27,3 20,1 27,1 9 5 19 10 S 1019,6 59 0,0
10.08.2018 20:00:00 28,7 19,3 29,2 10 5 29 16 S 1019,1 60 0,0
10.08.2018 19:00:00 30,4 19,7 32,8 18 10 30 16 SSW 1019,1 20 0,0
10.08.2018 18:00:00 31,7 17,9 34,4 11 6 33 18 SW 1019,3 20 0,0
10.08.2018 17:00:00 32,3 17,4 37,0 17 9 34 18 WSW 1019,2 46 0,0
10.08.2018 16:00:00 32,6 18,4 37,0 19 10 32 17 W 1019,5 50 0,0
10.08.2018 15:00:00 32,7 17,7 35,9 21 11 32 18 SW 1019,7 20 0,0
10.08.2018 14:00:00 32,3 17,4 32,0 19 10 34 18 SW 1019,8 57 0,0
10.08.2018 13:00:00 31,2 17,9 33,1 18 10 32 18 SW 1020,0 49 0,0
10.08.2018 12:00:00 32,3 19,5 34,8 20 11 32 17 SW 1020,1 19 0,0
10.08.2018 11:00:00 30,6 18,7 32,4 16 8 31 17 SW 1020,5 58 0,0
10.08.2018 10:00:00 29,7 21,1 30,0 16 9 27 15 SW 1020,4 60 0,0
10.08.2018 09:00:00 28,3 20,3 27,7 13 7 22 12 SW 1020,2 19 0,0
10.08.2018 08:00:00 25,7 20,5 22,5 3 2 11 6 SW 1020,1 20 0,0
10.08.2018 07:00:00 22,2 18,0 21,7 11 6 16 9 S 1019,6 26 0,0
10.08.2018 06:00:00 21,6 18,0 21,5 13 7 17 9 S 1019,2 26 0,0
10.08.2018 05:00:00 21,5 18,1 21,5 9 5 12 7 SSW 1018,8 24 0,0
10.08.2018 04:00:00 22,6 19,4 22,0 4 2 9 5 SSW 1017,9 19 0,0

tt = Température de l'air
td = dewpoint
tt 5cm = Température de l'air 5cm
ff = Vitesse du vent
fx = gusts
dd = Direction du vent
ppp = reduced air pressure
vv = visibility
rr = Quantités de précipitations

stations d'obs. à proximité